Location: St. Louis
(38.6270°N, 90.1994°W)
Time: 11:40:29
(UTC-06:00)

Tiros 1 despin weight - Pass Details

Date: 02 December 2021
Orbit: 592 x 641 km, 48.2° (Epoch: 25 January)

Event Time Altitude Azimuth Distance (km) Brightness Sun altitude
Rises 18:42:56 0° 304° (WNW) 2,826 ? -23.5°
Reaches altitude 10° 18:45:15 10° 308° (NW) 1,925 ? -24.0°
Enters shadow 18:48:39 46° 341° (NNW) 803 ? -24.6°
